Weather History for KJYM - December, 2013

Change the Weather History Date:

Saturday, December 21, 2013

  Actual Average Record
Temperature  
Mean Temperature 40 °F -  
Max Temperature 46 °F 32 °F 60 °F (1967)
Min Temperature 33 °F 18 °F -8 °F (1989)
Degree Days  
Heating Degree Days 26    
Moisture  
Dew Point 36 °F    
Average Humidity 100    
Maximum Humidity 100    
Minimum Humidity 100    
Precipitation  
Precipitation 0.00 in - - ()
Sea Level Pressure  
Sea Level Pressure 29.74 in    
Wind  
Wind Speed 8 mph (NNE)    
Max Wind Speed 17 mph    
Max Gust Speed 24 mph    
Visibility 3 miles    
Events      
Averages and records for this station are not official NWS values.
T = Trace of Precipitation, MM = Missing Value Source: NWS Daily Summary

Daily Weather History Graph

Daily Weather History Graph

Search for Another Location

Airport or City:

Trip Planner

Search our weather history database for the weather conditions in past years. The results will help you decide how hot, cold, wet, or windy it might be!

Date:

Astronomy

Dec. 21, 2013 Rise Set
Actual Time 8:02 AM EST 5:10 PM EST
Civil Twilight 7:31 AM EST 5:42 PM EST
Nautical Twilight 6:55 AM EST 6:17 PM EST
Astronomical Twilight 6:21 AM EST 6:51 PM EST
Moon 9:29 PM EST (12/21) 10:25 AM EST (12/21)
Length of Visible Light 10h 10m
Length of Day
9h 07m
Waning Gibbous, 84% of the Moon is Illuminated
Dec 21
Waning Gibbous
Dec 25
Last Quarter
Jan 1
New
Jan 7
First Quarter
Jan 15
Full

Hourly Weather History & Observations

Time (EST) Temp. Windchill Dew Point Humidity Pressure Visibility Wind Dir Wind Speed Gust Speed Precip Events Conditions
12:15 AM 46.4 °F 41.1 °F 46.4 °F 100% 29.71 in 2.5 mi West 11.5 mph 16.1 mph N/A   Overcast
12:35 AM 46.4 °F 40.7 °F 46.4 °F 100% 29.71 in 0.5 mi West 12.7 mph 20.7 mph N/A   Overcast
12:55 AM 44.6 °F 39.7 °F 44.6 °F 100% 29.71 in 1.2 mi West 9.2 mph 18.4 mph N/A   Overcast
1:15 AM 44.6 °F 40.2 °F 44.6 °F 100% 29.71 in 1.5 mi WSW 8.1 mph - N/A   Overcast
1:35 AM 42.8 °F 38.0 °F 42.8 °F 100% 29.72 in 2.5 mi West 8.1 mph 17.3 mph N/A   Overcast
1:55 AM 42.8 °F 36.2 °F 42.8 °F 100% 29.71 in 2.0 mi West 12.7 mph 16.1 mph N/A   Overcast
2:15 AM 41.0 °F 35.8 °F 41.0 °F 100% 29.72 in 0.8 mi West 8.1 mph 16.1 mph N/A   Overcast
2:35 AM 39.2 °F 32.5 °F 39.2 °F 100% 29.73 in 0.8 mi West 10.4 mph 18.4 mph N/A   Overcast
2:55 AM 39.2 °F 34.2 °F 39.2 °F 100% 29.73 in 0.5 mi West 6.9 mph - N/A   Overcast
3:15 AM 37.4 °F 33.8 °F 37.4 °F 100% 29.73 in 0.5 mi West 4.6 mph - N/A   Overcast
3:35 AM 37.4 °F 32.1 °F 37.4 °F 100% 29.74 in 0.5 mi West 6.9 mph - N/A   Overcast
3:55 AM 37.4 °F 30.8 °F 37.4 °F 100% 29.75 in 1.0 mi West 9.2 mph - N/A   Overcast
4:15 AM 37.4 °F 32.1 °F 37.4 °F 100% 29.73 in 1.2 mi West 6.9 mph - N/A   Overcast
4:35 AM 35.6 °F 29.2 °F 35.6 °F 100% 29.75 in 0.8 mi West 8.1 mph - N/A   Overcast
4:55 AM 35.6 °F 29.9 °F 35.6 °F 100% 29.76 in 0.5 mi WNW 6.9 mph - N/A   Overcast
5:15 AM 35.6 °F 27.5 °F 35.6 °F 100% 29.78 in 1.8 mi WNW 11.5 mph - N/A   Overcast
5:35 AM 35.6 °F 28.0 °F 35.6 °F 100% 29.77 in 0.5 mi WNW 10.4 mph - N/A   Overcast
5:55 AM 35.6 °F 29.2 °F 35.6 °F 100% 29.74 in 0.5 mi WNW 8.1 mph - N/A   Overcast
6:15 AM 35.6 °F 31.7 °F 35.6 °F 100% 29.73 in 0.5 mi NW 4.6 mph - N/A   Overcast
6:35 AM 35.6 °F 29.2 °F 35.6 °F 100% 29.75 in 0.5 mi NW 8.1 mph - N/A   Overcast
6:55 AM 35.6 °F 29.9 °F 35.6 °F 100% 29.78 in 0.5 mi WNW 6.9 mph - N/A   Overcast
7:15 AM 33.8 °F - 33.8 °F 100% 29.76 in 0.2 mi WNW 2.3 mph - N/A   Overcast
7:35 AM 33.8 °F - 33.8 °F 100% 29.77 in 0.5 mi West 2.3 mph - N/A   Overcast
7:55 AM 33.8 °F 29.6 °F 33.8 °F 100% 29.78 in 0.2 mi WNW 4.6 mph - N/A   Overcast
8:15 AM 33.8 °F 28.6 °F 33.8 °F 100% 29.78 in 0.5 mi NW 5.8 mph - N/A   Overcast
8:35 AM 33.8 °F 29.6 °F 33.8 °F 100% 29.80 in 0.5 mi NW 4.6 mph - N/A   Overcast
8:55 AM 33.8 °F 27.7 °F 33.8 °F 100% 29.81 in 0.5 mi NW 6.9 mph - N/A   Overcast
9:15 AM 33.8 °F 30.8 °F 33.8 °F 100% 29.80 in 1.5 mi NNW 3.5 mph - N/A   Overcast
9:35 AM 33.8 °F 29.6 °F 33.8 °F 100% 29.80 in 2.5 mi North 4.6 mph - N/A   Overcast
9:55 AM 33.8 °F - 33.8 °F 100% 29.79 in 2.5 mi NNE 2.3 mph - N/A   Overcast
10:15 AM 33.8 °F 28.6 °F 33.8 °F 100% 29.79 in 3.0 mi East 5.8 mph - N/A   Overcast
10:35 AM 33.8 °F 28.6 °F 33.8 °F 100% 29.78 in 4.0 mi East 5.8 mph - N/A   Overcast
10:55 AM 33.8 °F - 33.8 °F 100% 29.80 in 4.0 mi East 2.3 mph - N/A   Overcast
11:15 AM 35.6 °F 32.8 °F 35.6 °F 100% 29.79 in 4.0 mi East 3.5 mph - N/A   Overcast
11:35 AM 35.6 °F 31.7 °F 35.6 °F 100% 29.79 in 7.0 mi East 4.6 mph - N/A   Overcast
11:55 AM 35.6 °F 32.8 °F 35.6 °F 100% 29.79 in 4.0 mi ENE 3.5 mph - N/A   Overcast
12:15 PM 35.6 °F 32.8 °F 35.6 °F 100% 29.77 in 5.0 mi ENE 3.5 mph - N/A   Overcast
12:35 PM 35.6 °F 29.9 °F 35.6 °F 100% 29.76 in 5.0 mi NNE 6.9 mph - N/A   Overcast
12:55 PM 35.6 °F 29.9 °F 35.6 °F 100% 29.76 in 5.0 mi NNE 6.9 mph - N/A   Overcast
1:15 PM 35.6 °F 30.7 °F 35.6 °F 100% 29.77 in 10.0 mi North 5.8 mph - N/A   Overcast
1:35 PM 33.8 °F 29.6 °F 33.8 °F 100% 29.77 in 3.0 mi ENE 4.6 mph - N/A   Overcast
1:55 PM 33.8 °F 29.6 °F 33.8 °F 100% 29.77 in 2.0 mi NE 4.6 mph - N/A   Overcast
2:15 PM 33.8 °F 29.6 °F 33.8 °F 100% 29.78 in 2.0 mi NE 4.6 mph - N/A   Overcast
2:35 PM 33.8 °F 29.6 °F 33.8 °F 100% 29.78 in 2.0 mi ENE 4.6 mph - N/A   Overcast
2:55 PM 33.8 °F 26.4 °F 33.8 °F 100% 29.76 in 3.0 mi ENE 9.2 mph - N/A   Overcast
3:15 PM 33.8 °F 27.7 °F 33.8 °F 100% 29.75 in 4.0 mi ENE 6.9 mph - N/A   Overcast
3:35 PM 33.8 °F 26.4 °F 33.8 °F 100% 29.76 in 3.0 mi ENE 9.2 mph - N/A   Overcast
3:55 PM 33.8 °F 27.0 °F 33.8 °F 100% 29.77 in 5.0 mi ENE 8.1 mph - N/A   Overcast
4:15 PM 33.8 °F 28.6 °F 33.8 °F 100% 29.77 in 3.0 mi ENE 5.8 mph - N/A   Overcast
4:35 PM 33.8 °F 27.7 °F 33.8 °F 100% 29.76 in 3.0 mi ENE 6.9 mph - N/A   Overcast
4:55 PM 33.8 °F 25.8 °F 33.8 °F 100% 29.74 in 5.0 mi East 10.4 mph - N/A   Overcast
5:15 PM 33.8 °F 26.4 °F 33.8 °F 100% 29.74 in 5.0 mi East 9.2 mph - N/A   Overcast
5:35 PM 33.8 °F 26.4 °F 33.8 °F 100% 29.75 in 5.0 mi East 9.2 mph - N/A   Overcast
5:55 PM 33.8 °F 25.3 °F 33.8 °F 100% 29.73 in 5.0 mi East 11.5 mph - N/A   Overcast
6:15 PM 33.8 °F 26.4 °F 33.8 °F 100% 29.74 in 7.0 mi East 9.2 mph - N/A   Overcast
6:35 PM 33.8 °F 26.4 °F 33.8 °F 100% 29.74 in 5.0 mi ENE 9.2 mph - N/A   Overcast
6:55 PM 33.8 °F 27.0 °F 33.8 °F 100% 29.76 in 4.0 mi ENE 8.1 mph - N/A   Overcast
7:15 PM 33.8 °F 27.7 °F 33.8 °F 100% 29.76 in 4.0 mi ENE 6.9 mph - N/A   Overcast
7:35 PM 33.8 °F 27.7 °F 33.8 °F 100% 29.75 in 5.0 mi NE 6.9 mph - N/A   Overcast
7:55 PM 33.8 °F 27.0 °F 33.8 °F 100% 29.75 in 5.0 mi NE 8.1 mph - N/A   Overcast
8:15 PM 33.8 °F 27.0 °F 33.8 °F 100% 29.75 in 5.0 mi ENE 8.1 mph 16.1 mph N/A   Overcast
8:35 PM 33.8 °F 25.3 °F 33.8 °F 100% 29.73 in 5.0 mi NE 11.5 mph - N/A   Overcast
8:55 PM 33.8 °F 25.8 °F 33.8 °F 100% 29.72 in 5.0 mi ENE 10.4 mph 23.0 mph N/A   Overcast
9:15 PM 33.8 °F 25.3 °F 33.8 °F 100% 29.71 in 3.0 mi NE 11.5 mph 19.6 mph N/A   Overcast
9:35 PM 33.8 °F 24.8 °F 33.8 °F 100% 29.70 in 5.0 mi NE 12.7 mph - N/A   Overcast
9:55 PM 33.8 °F 24.3 °F 33.8 °F 100% 29.63 in 5.0 mi ENE 13.8 mph 24.2 mph N/A   Overcast
10:15 PM 33.8 °F 23.2 °F 33.8 °F 100% 29.63 in 7.0 mi NE 17.3 mph 20.7 mph N/A   Overcast
10:35 PM 33.8 °F 25.3 °F 33.8 °F 100% 29.61 in 7.0 mi ENE 11.5 mph - N/A   Overcast
10:55 PM 33.8 °F 24.8 °F 33.8 °F 100% 29.62 in 5.0 mi ENE 12.7 mph 18.4 mph N/A   Overcast
11:15 PM 33.8 °F 24.8 °F 33.8 °F 100% 29.60 in 5.0 mi ENE 12.7 mph 17.3 mph N/A   Overcast
11:35 PM 33.8 °F 27.0 °F 33.8 °F 100% 29.61 in 5.0 mi NNE 8.1 mph - N/A   Overcast
11:55 PM 33.8 °F 24.8 °F 33.8 °F 100% 29.56 in 5.0 mi ENE 12.7 mph 17.3 mph N/A   Overcast